Year,Month,Day,Hour,Minute,Value (Times are PST for temperature in C)
2015,04,11,00,00,4.60
2015,04,11,00,01,4.60
2015,04,11,00,02,4.60
2015,04,11,00,03,4.60
2015,04,11,00,04,4.60
2015,04,11,00,05,4.60
2015,04,11,00,06,4.60
2015,04,11,00,07,4.70
2015,04,11,00,08,4.70
2015,04,11,00,09,4.80
2015,04,11,00,10,4.80
2015,04,11,00,11,4.90
2015,04,11,00,12,4.90
2015,04,11,00,13,5.00
2015,04,11,00,14,5.00
2015,04,11,00,15,5.00
2015,04,11,00,16,5.10
2015,04,11,00,17,5.10
2015,04,11,00,18,5.10
2015,04,11,00,19,5.10
2015,04,11,00,20,5.10
2015,04,11,00,21,5.10
2015,04,11,00,22,5.10
2015,04,11,00,23,5.10
2015,04,11,00,24,5.10
2015,04,11,00,25,5.10
2015,04,11,00,26,5.20
2015,04,11,00,27,5.20
2015,04,11,00,28,5.20
2015,04,11,00,29,5.20
2015,04,11,00,30,5.20
2015,04,11,00,31,5.20
2015,04,11,00,32,5.20
2015,04,11,00,33,5.20
2015,04,11,00,34,5.30
2015,04,11,00,35,5.30
2015,04,11,00,36,5.40
2015,04,11,00,37,5.40
2015,04,11,00,38,5.40
2015,04,11,00,39,5.40
2015,04,11,00,40,5.40
2015,04,11,00,41,5.40
2015,04,11,00,42,5.50
2015,04,11,00,43,5.50
2015,04,11,00,44,5.50
2015,04,11,00,45,5.50
2015,04,11,00,46,5.50
2015,04,11,00,47,5.50
2015,04,11,00,48,5.50
2015,04,11,00,49,5.50
2015,04,11,00,50,5.50
2015,04,11,00,51,5.50
2015,04,11,00,52,5.50
2015,04,11,00,53,5.50
2015,04,11,00,54,5.50
2015,04,11,00,55,5.50
2015,04,11,00,56,5.50
2015,04,11,00,57,5.50
2015,04,11,00,58,5.50
2015,04,11,00,59,5.50
2015,04,11,01,00,5.50
2015,04,11,01,01,5.50
2015,04,11,01,02,5.50
2015,04,11,01,03,5.40
2015,04,11,01,04,5.40
2015,04,11,01,05,5.40
2015,04,11,01,06,5.40
2015,04,11,01,07,5.40
2015,04,11,01,08,5.50
2015,04,11,01,09,5.50
2015,04,11,01,10,5.60
2015,04,11,01,11,5.60
2015,04,11,01,12,5.60
2015,04,11,01,13,5.60
2015,04,11,01,14,5.60
2015,04,11,01,15,5.60
2015,04,11,01,16,5.60
2015,04,11,01,17,5.60
2015,04,11,01,18,5.60
2015,04,11,01,19,5.60
2015,04,11,01,20,5.50
2015,04,11,01,21,5.50
2015,04,11,01,22,5.50
2015,04,11,01,23,5.50
2015,04,11,01,24,5.50
2015,04,11,01,25,5.50
2015,04,11,01,26,5.60
2015,04,11,01,27,5.60
2015,04,11,01,28,5.60
2015,04,11,01,29,5.60
2015,04,11,01,30,5.70
2015,04,11,01,31,5.70
2015,04,11,01,32,5.60
2015,04,11,01,33,5.50
2015,04,11,01,34,5.40
2015,04,11,01,35,5.30
2015,04,11,01,36,5.20
2015,04,11,01,37,5.10
2015,04,11,01,38,4.90
2015,04,11,01,39,4.80
2015,04,11,01,40,4.70
2015,04,11,01,41,4.60
2015,04,11,01,42,4.50
2015,04,11,01,43,4.40
2015,04,11,01,44,4.30
2015,04,11,01,45,4.20
2015,04,11,01,46,4.00
2015,04,11,01,47,3.90
2015,04,11,01,48,3.80
2015,04,11,01,49,3.70
2015,04,11,01,50,3.60
2015,04,11,01,51,3.60
2015,04,11,01,52,3.50
2015,04,11,01,53,3.40
2015,04,11,01,54,3.30
2015,04,11,01,55,3.20
2015,04,11,01,56,3.10
2015,04,11,01,57,3.00
2015,04,11,01,58,3.00
2015,04,11,01,59,2.90
2015,04,11,02,00,2.80
2015,04,11,02,01,2.80
2015,04,11,02,02,2.80
2015,04,11,02,03,2.70
2015,04,11,02,04,2.70
2015,04,11,02,05,2.70
2015,04,11,02,06,2.70
2015,04,11,02,07,2.60
2015,04,11,02,08,2.60
2015,04,11,02,09,2.60
2015,04,11,02,10,2.60
2015,04,11,02,11,2.60
2015,04,11,02,12,2.60
2015,04,11,02,13,2.60
2015,04,11,02,14,2.60
2015,04,11,02,15,2.60
2015,04,11,02,16,2.60
2015,04,11,02,17,2.50
2015,04,11,02,18,2.50
2015,04,11,02,19,2.50
2015,04,11,02,20,2.40
2015,04,11,02,21,2.40
2015,04,11,02,22,2.30
2015,04,11,02,23,2.30
2015,04,11,02,24,2.30
2015,04,11,02,25,2.30
2015,04,11,02,26,2.30
2015,04,11,02,27,2.30
2015,04,11,02,28,2.30
2015,04,11,02,29,2.30
2015,04,11,02,30,2.30
2015,04,11,02,31,2.30
2015,04,11,02,32,2.30
2015,04,11,02,33,2.30
2015,04,11,02,34,2.30
2015,04,11,02,35,2.20
2015,04,11,02,36,2.20
2015,04,11,02,37,2.20
2015,04,11,02,38,2.20
2015,04,11,02,39,2.20
2015,04,11,02,40,2.10
2015,04,11,02,41,2.10
2015,04,11,02,42,2.10
2015,04,11,02,43,2.00
2015,04,11,02,44,2.00
2015,04,11,02,45,1.90
2015,04,11,02,46,1.90
2015,04,11,02,47,1.80
2015,04,11,02,48,1.80
2015,04,11,02,49,1.80
2015,04,11,02,50,1.70
2015,04,11,02,51,1.70
2015,04,11,02,52,1.70
2015,04,11,02,53,1.70
2015,04,11,02,54,1.60
2015,04,11,02,55,1.60
2015,04,11,02,56,1.60
2015,04,11,02,57,1.60
2015,04,11,02,58,1.60
2015,04,11,02,59,1.60
2015,04,11,03,00,1.60
2015,04,11,03,01,1.60
2015,04,11,03,02,1.60
2015,04,11,03,03,1.50
2015,04,11,03,04,1.50
2015,04,11,03,05,1.50
2015,04,11,03,06,1.40
2015,04,11,03,07,1.40
2015,04,11,03,08,1.40
2015,04,11,03,09,1.50
2015,04,11,03,10,1.50
2015,04,11,03,11,1.50
2015,04,11,03,12,1.50
2015,04,11,03,13,1.50
2015,04,11,03,14,1.40
2015,04,11,03,15,1.40
2015,04,11,03,16,1.50
2015,04,11,03,17,1.50
2015,04,11,03,18,1.60
2015,04,11,03,19,1.60
2015,04,11,03,20,1.60
2015,04,11,03,21,1.70
2015,04,11,03,22,1.70
2015,04,11,03,23,1.70
2015,04,11,03,24,1.70
2015,04,11,03,25,1.60
2015,04,11,03,26,1.60
2015,04,11,03,27,1.60
2015,04,11,03,28,1.60
2015,04,11,03,29,1.60
2015,04,11,03,30,1.50
2015,04,11,03,31,1.40
2015,04,11,03,32,1.40
2015,04,11,03,33,1.30
2015,04,11,03,34,1.30
2015,04,11,03,35,1.30
2015,04,11,03,36,1.20
2015,04,11,03,37,1.20
2015,04,11,03,38,1.20
2015,04,11,03,39,1.20
2015,04,11,03,40,1.10
2015,04,11,03,41,1.10
2015,04,11,03,42,1.10
2015,04,11,03,43,1.10
2015,04,11,03,44,1.10
2015,04,11,03,45,1.00
2015,04,11,03,46,1.00
2015,04,11,03,47,1.00
2015,04,11,03,48,1.00
2015,04,11,03,49,1.00
2015,04,11,03,50,1.00
2015,04,11,03,51,1.00
2015,04,11,03,52,1.00
2015,04,11,03,53,1.00
2015,04,11,03,54,1.00
2015,04,11,03,55,1.00
2015,04,11,03,56,0.90
2015,04,11,03,57,0.90
2015,04,11,03,58,0.90
2015,04,11,03,59,0.90
2015,04,11,04,00,0.90
2015,04,11,04,01,0.90
2015,04,11,04,02,0.90
2015,04,11,04,03,0.90
2015,04,11,04,04,0.90
2015,04,11,04,05,0.90
2015,04,11,04,06,0.90
2015,04,11,04,07,0.90
2015,04,11,04,08,0.90
2015,04,11,04,09,0.90
2015,04,11,04,10,0.90
2015,04,11,04,11,0.90
2015,04,11,04,12,1.00
2015,04,11,04,13,1.00
2015,04,11,04,14,1.00
2015,04,11,04,15,1.10
2015,04,11,04,16,1.10
2015,04,11,04,17,1.10
2015,04,11,04,18,1.10
2015,04,11,04,19,1.20
2015,04,11,04,20,1.20
2015,04,11,04,21,1.20
2015,04,11,04,22,1.20
2015,04,11,04,23,1.20
2015,04,11,04,24,1.20
2015,04,11,04,25,1.20
2015,04,11,04,26,1.20
2015,04,11,04,27,1.30
2015,04,11,04,28,1.30
2015,04,11,04,29,1.30
2015,04,11,04,30,1.30
2015,04,11,04,31,1.30
2015,04,11,04,32,1.30
2015,04,11,04,33,1.30
2015,04,11,04,34,1.30
2015,04,11,04,35,1.30
2015,04,11,04,36,1.30
2015,04,11,04,37,1.30
2015,04,11,04,38,1.40
2015,04,11,04,39,1.40
2015,04,11,04,40,1.40
2015,04,11,04,41,1.50
2015,04,11,04,42,1.50
2015,04,11,04,43,1.50
2015,04,11,04,44,1.50
2015,04,11,04,45,1.50
2015,04,11,04,46,1.50
2015,04,11,04,47,1.50
2015,04,11,04,48,1.50
2015,04,11,04,49,1.50
2015,04,11,04,50,1.50
2015,04,11,04,51,1.50
2015,04,11,04,52,1.50
2015,04,11,04,53,1.50
2015,04,11,04,54,1.50
2015,04,11,04,55,1.50
2015,04,11,04,56,1.50
2015,04,11,04,57,1.40
2015,04,11,04,58,1.40
2015,04,11,04,59,1.40
2015,04,11,05,00,1.40
2015,04,11,05,01,1.40
2015,04,11,05,02,1.50
2015,04,11,05,03,1.50
2015,04,11,05,04,1.50
2015,04,11,05,05,1.50
2015,04,11,05,06,1.60
2015,04,11,05,07,1.60
2015,04,11,05,08,1.60
2015,04,11,05,09,1.70
2015,04,11,05,10,1.70
2015,04,11,05,11,1.70
2015,04,11,05,12,1.70
2015,04,11,05,13,1.70
2015,04,11,05,14,1.70
2015,04,11,05,15,1.60
2015,04,11,05,16,1.60
2015,04,11,05,17,1.60
2015,04,11,05,18,1.50
2015,04,11,05,19,1.50
2015,04,11,05,20,1.50
2015,04,11,05,21,1.50
2015,04,11,05,22,1.50
2015,04,11,05,23,1.50
2015,04,11,05,24,1.50
2015,04,11,05,25,1.50
2015,04,11,05,26,1.60
2015,04,11,05,27,1.60
2015,04,11,05,28,1.60
2015,04,11,05,29,1.60
2015,04,11,05,30,1.60
2015,04,11,05,31,1.60
2015,04,11,05,32,1.60
2015,04,11,05,33,1.50
2015,04,11,05,34,1.50
2015,04,11,05,35,1.50
2015,04,11,05,36,1.50
2015,04,11,05,37,1.50
2015,04,11,05,38,1.40
2015,04,11,05,39,1.40
2015,04,11,05,40,1.40
2015,04,11,05,41,1.40
2015,04,11,05,42,1.40
2015,04,11,05,43,1.40
2015,04,11,05,44,1.40
2015,04,11,05,45,1.40
2015,04,11,05,46,1.40
2015,04,11,05,47,1.40
2015,04,11,05,48,1.40
2015,04,11,05,49,1.40
2015,04,11,05,50,1.40
2015,04,11,05,51,1.40
2015,04,11,05,52,1.40
2015,04,11,05,53,1.40
2015,04,11,05,54,1.30
2015,04,11,05,55,1.30
2015,04,11,05,56,1.30
2015,04,11,05,57,1.30
2015,04,11,05,58,1.30
2015,04,11,05,59,1.30
2015,04,11,06,00,1.20
2015,04,11,06,01,1.20
2015,04,11,06,02,1.20
2015,04,11,06,03,1.20
2015,04,11,06,04,1.20
2015,04,11,06,05,1.20
2015,04,11,06,06,1.20
2015,04,11,06,07,1.20
2015,04,11,06,08,1.20
2015,04,11,06,09,1.20
2015,04,11,06,10,1.20
2015,04,11,06,11,1.20
2015,04,11,06,12,1.20
2015,04,11,06,13,1.20
2015,04,11,06,14,1.20
2015,04,11,06,15,1.20
2015,04,11,06,16,1.10
2015,04,11,06,17,1.10
2015,04,11,06,18,1.10
2015,04,11,06,19,1.00
2015,04,11,06,20,1.00
2015,04,11,06,21,0.90
2015,04,11,06,22,0.90
2015,04,11,06,23,0.90
2015,04,11,06,24,0.80
2015,04,11,06,25,0.80
2015,04,11,06,26,0.80
2015,04,11,06,27,0.80
2015,04,11,06,28,0.80
2015,04,11,06,29,0.80
2015,04,11,06,30,0.80
2015,04,11,06,31,0.80
2015,04,11,06,32,0.80
2015,04,11,06,33,0.70
2015,04,11,06,34,0.70
2015,04,11,06,35,0.70
2015,04,11,06,36,0.60
2015,04,11,06,37,0.60
2015,04,11,06,38,0.60
2015,04,11,06,39,0.60
2015,04,11,06,40,0.60
2015,04,11,06,41,0.60
2015,04,11,06,42,0.50
2015,04,11,06,43,0.50
2015,04,11,06,44,0.50
2015,04,11,06,45,0.40
2015,04,11,06,46,0.40
2015,04,11,06,47,0.40
2015,04,11,06,48,0.40
2015,04,11,06,49,0.40
2015,04,11,06,50,0.40
2015,04,11,06,51,0.40
2015,04,11,06,52,0.40
2015,04,11,06,53,0.50
2015,04,11,06,54,0.40
2015,04,11,06,55,0.40
2015,04,11,06,56,0.40
2015,04,11,06,57,0.40
2015,04,11,06,58,0.40
2015,04,11,06,59,0.40
2015,04,11,07,00,0.50
2015,04,11,07,01,0.50
2015,04,11,07,02,0.50
2015,04,11,07,03,0.60
2015,04,11,07,04,0.50
2015,04,11,07,05,0.50
2015,04,11,07,06,0.50
2015,04,11,07,07,0.40
2015,04,11,07,08,0.40
2015,04,11,07,09,0.40
2015,04,11,07,10,0.40
2015,04,11,07,11,0.40
2015,04,11,07,12,0.50
2015,04,11,07,13,0.60
2015,04,11,07,14,0.60
2015,04,11,07,15,0.70
2015,04,11,07,16,0.70
2015,04,11,07,17,0.70
2015,04,11,07,18,0.80
2015,04,11,07,19,0.80
2015,04,11,07,20,0.90
2015,04,11,07,21,0.90
2015,04,11,07,22,1.00
2015,04,11,07,23,1.10
2015,04,11,07,24,1.20
2015,04,11,07,25,1.30
2015,04,11,07,26,1.40
2015,04,11,07,27,1.60
2015,04,11,07,28,1.70
2015,04,11,07,29,1.80
2015,04,11,07,30,1.90
2015,04,11,07,31,2.00
2015,04,11,07,32,2.00
2015,04,11,07,33,2.10
2015,04,11,07,34,2.20
2015,04,11,07,35,2.20
2015,04,11,07,36,2.30
2015,04,11,07,37,2.40
2015,04,11,07,38,2.50
2015,04,11,07,39,2.50
2015,04,11,07,40,2.60
2015,04,11,07,41,2.70
2015,04,11,07,42,2.70
2015,04,11,07,43,2.80
2015,04,11,07,44,2.80
2015,04,11,07,45,2.90
2015,04,11,07,46,3.00
2015,04,11,07,47,3.10
2015,04,11,07,48,3.20
2015,04,11,07,49,3.20
2015,04,11,07,50,3.30
2015,04,11,07,51,3.40
2015,04,11,07,52,3.50
2015,04,11,07,53,3.60
2015,04,11,07,54,3.70
2015,04,11,07,55,3.80
2015,04,11,07,56,3.80
2015,04,11,07,57,3.90
2015,04,11,07,58,4.00
2015,04,11,07,59,4.10
2015,04,11,08,00,4.10
2015,04,11,08,01,4.20
2015,04,11,08,02,4.20
2015,04,11,08,03,4.20
2015,04,11,08,04,4.30
2015,04,11,08,05,4.30
2015,04,11,08,06,4.30
2015,04,11,08,07,4.30
2015,04,11,08,08,4.30
2015,04,11,08,09,4.30
2015,04,11,08,10,4.30
2015,04,11,08,11,4.40
2015,04,11,08,12,4.40
2015,04,11,08,13,4.40
2015,04,11,08,14,4.40
2015,04,11,08,15,4.40
2015,04,11,08,16,4.50
2015,04,11,08,17,4.60
2015,04,11,08,18,4.60
2015,04,11,08,19,4.70
2015,04,11,08,20,4.70
2015,04,11,08,21,4.80
2015,04,11,08,22,4.80
2015,04,11,08,23,4.90
2015,04,11,08,24,4.90
2015,04,11,08,25,4.90
2015,04,11,08,26,5.00
2015,04,11,08,27,5.10
2015,04,11,08,28,5.10
2015,04,11,08,29,5.20
2015,04,11,08,30,5.30
2015,04,11,08,31,5.30
2015,04,11,08,32,5.30
2015,04,11,08,33,5.40
2015,04,11,08,34,5.50
2015,04,11,08,35,5.50
2015,04,11,08,36,5.60
2015,04,11,08,37,5.70
2015,04,11,08,38,5.70
2015,04,11,08,39,5.80
2015,04,11,08,40,5.80
2015,04,11,08,41,5.80
2015,04,11,08,42,5.90
2015,04,11,08,43,6.00
2015,04,11,08,44,6.00
2015,04,11,08,45,6.10
2015,04,11,08,46,6.10
2015,04,11,08,47,6.20
2015,04,11,08,48,6.20
2015,04,11,08,49,6.20
2015,04,11,08,50,6.30
2015,04,11,08,51,6.30
2015,04,11,08,52,6.40
2015,04,11,08,53,6.40
2015,04,11,08,54,6.40
2015,04,11,08,55,6.50
2015,04,11,08,56,6.50
2015,04,11,08,57,6.50
2015,04,11,08,58,6.60
2015,04,11,08,59,6.70
2015,04,11,09,00,6.70
2015,04,11,09,01,6.70
2015,04,11,09,02,6.80
2015,04,11,09,03,6.80
2015,04,11,09,04,6.80
2015,04,11,09,05,6.90
2015,04,11,09,06,6.90
2015,04,11,09,07,6.90
2015,04,11,09,08,7.00
2015,04,11,09,09,7.00
2015,04,11,09,10,7.10
2015,04,11,09,11,7.10
2015,04,11,09,12,7.20
2015,04,11,09,13,7.20
2015,04,11,09,14,7.20
2015,04,11,09,15,7.20
2015,04,11,09,16,7.20
2015,04,11,09,17,7.10
2015,04,11,09,18,7.10
2015,04,11,09,19,7.10
2015,04,11,09,20,7.10
2015,04,11,09,21,7.00
2015,04,11,09,22,7.00
2015,04,11,09,23,7.00
2015,04,11,09,24,7.00
2015,04,11,09,25,6.90
2015,04,11,09,26,6.90
2015,04,11,09,27,6.90
2015,04,11,09,28,6.80
2015,04,11,09,29,6.80
2015,04,11,09,30,6.80
2015,04,11,09,31,6.80
2015,04,11,09,32,6.80
2015,04,11,09,33,6.90
2015,04,11,09,34,6.90
2015,04,11,09,35,6.90
2015,04,11,09,36,6.90
2015,04,11,09,37,6.90
2015,04,11,09,38,7.00
2015,04,11,09,39,7.00
2015,04,11,09,40,7.00
2015,04,11,09,41,7.10
2015,04,11,09,42,7.10
2015,04,11,09,43,7.10
2015,04,11,09,44,7.20
2015,04,11,09,45,7.10
2015,04,11,09,46,7.10
2015,04,11,09,47,7.10
2015,04,11,09,48,7.10
2015,04,11,09,49,7.10
2015,04,11,09,50,7.20
2015,04,11,09,51,7.20
2015,04,11,09,52,7.30
2015,04,11,09,53,7.40
2015,04,11,09,54,7.40
2015,04,11,09,55,7.50
2015,04,11,09,56,7.50
2015,04,11,09,57,7.60
2015,04,11,09,58,7.60
2015,04,11,09,59,7.70
2015,04,11,10,00,7.70
2015,04,11,10,01,7.80
2015,04,11,10,02,7.90
2015,04,11,10,03,8.00
2015,04,11,10,04,8.10
2015,04,11,10,05,8.20
2015,04,11,10,06,8.20
2015,04,11,10,07,8.20
2015,04,11,10,08,8.20
2015,04,11,10,09,8.10
2015,04,11,10,10,8.10
2015,04,11,10,11,8.10
2015,04,11,10,12,8.10
2015,04,11,10,13,8.10
2015,04,11,10,14,8.10
2015,04,11,10,15,8.10
2015,04,11,10,16,8.10
2015,04,11,10,17,8.10
2015,04,11,10,18,8.20
2015,04,11,10,19,8.20
2015,04,11,10,20,8.20
2015,04,11,10,21,8.20
2015,04,11,10,22,8.20
2015,04,11,10,23,8.20
2015,04,11,10,24,8.20
2015,04,11,10,25,8.30
2015,04,11,10,26,8.30
2015,04,11,10,27,8.40
2015,04,11,10,28,8.50
2015,04,11,10,29,8.60
2015,04,11,10,30,8.60
2015,04,11,10,31,8.70
2015,04,11,10,32,8.70
2015,04,11,10,33,8.70
2015,04,11,10,34,8.70
2015,04,11,10,35,8.70
2015,04,11,10,36,8.70
2015,04,11,10,37,8.70
2015,04,11,10,38,8.80
2015,04,11,10,39,8.80
2015,04,11,10,40,8.80
2015,04,11,10,41,8.80
2015,04,11,10,42,8.80
2015,04,11,10,43,8.80
2015,04,11,10,44,8.90
2015,04,11,10,45,9.00
2015,04,11,10,46,9.00
2015,04,11,10,47,9.00
2015,04,11,10,48,9.00
2015,04,11,10,49,9.00
2015,04,11,10,50,9.10
2015,04,11,10,51,9.10
2015,04,11,10,52,9.10
2015,04,11,10,53,9.20
2015,04,11,10,54,9.20
2015,04,11,10,55,9.20
2015,04,11,10,56,9.20
2015,04,11,10,57,9.30
2015,04,11,10,58,9.30
2015,04,11,10,59,9.30
2015,04,11,11,00,9.40
2015,04,11,11,01,9.50
2015,04,11,11,02,9.60
2015,04,11,11,03,9.70
2015,04,11,11,04,9.80
2015,04,11,11,05,9.90
2015,04,11,11,06,9.90
2015,04,11,11,07,9.90
2015,04,11,11,08,9.90
2015,04,11,11,09,9.90
2015,04,11,11,10,9.90
2015,04,11,11,11,9.70
2015,04,11,11,12,9.60
2015,04,11,11,13,9.40
2015,04,11,11,14,9.40
2015,04,11,11,15,9.30
2015,04,11,11,16,9.30
2015,04,11,11,17,9.30
2015,04,11,11,18,9.30
2015,04,11,11,19,9.30
2015,04,11,11,20,9.30
2015,04,11,11,21,9.30
2015,04,11,11,22,9.20
2015,04,11,11,23,9.20
2015,04,11,11,24,9.20
2015,04,11,11,25,9.10
2015,04,11,11,26,9.10
2015,04,11,11,27,9.00
2015,04,11,11,28,8.90
2015,04,11,11,29,8.80
2015,04,11,11,30,8.70
2015,04,11,11,31,8.70
2015,04,11,11,32,8.70
2015,04,11,11,33,8.60
2015,04,11,11,34,8.50
2015,04,11,11,35,8.50
2015,04,11,11,36,8.40
2015,04,11,11,37,8.40
2015,04,11,11,38,8.40
2015,04,11,11,39,8.40
2015,04,11,11,40,8.40
2015,04,11,11,41,8.50
2015,04,11,11,42,8.60
2015,04,11,11,43,8.70
2015,04,11,11,44,8.70
2015,04,11,11,45,8.80
2015,04,11,11,46,8.80
2015,04,11,11,47,8.80
2015,04,11,11,48,8.90
2015,04,11,11,49,8.80
2015,04,11,11,50,8.80
2015,04,11,11,51,8.70
2015,04,11,11,52,8.60
2015,04,11,11,53,8.50
2015,04,11,11,54,8.40
2015,04,11,11,55,8.30
2015,04,11,11,56,8.30
2015,04,11,11,57,8.30
2015,04,11,11,58,8.30
2015,04,11,11,59,8.30
2015,04,11,12,00,8.40
2015,04,11,12,01,8.40
2015,04,11,12,02,8.40
2015,04,11,12,03,8.40
2015,04,11,12,04,8.50
2015,04,11,12,05,8.50
2015,04,11,12,06,8.70
2015,04,11,12,07,8.80
2015,04,11,12,08,8.80
2015,04,11,12,09,8.80
2015,04,11,12,10,8.80
2015,04,11,12,11,8.80
2015,04,11,12,12,8.70
2015,04,11,12,13,8.70
2015,04,11,12,14,8.70
2015,04,11,12,15,8.60
2015,04,11,12,16,8.60
2015,04,11,12,17,8.60
2015,04,11,12,18,8.60
2015,04,11,12,19,8.70
2015,04,11,12,20,8.80
2015,04,11,12,21,8.90
2015,04,11,12,22,8.90
2015,04,11,12,23,9.00
2015,04,11,12,24,9.00
2015,04,11,12,25,9.10
2015,04,11,12,26,9.10
2015,04,11,12,27,9.20
2015,04,11,12,28,9.20
2015,04,11,12,29,9.20
2015,04,11,12,30,9.20
2015,04,11,12,31,9.20
2015,04,11,12,32,9.20
2015,04,11,12,33,9.20
2015,04,11,12,34,9.10
2015,04,11,12,35,9.00
2015,04,11,12,36,9.00
2015,04,11,12,37,9.10
2015,04,11,12,38,9.10
2015,04,11,12,39,9.10
2015,04,11,12,40,9.10
2015,04,11,12,41,9.10
2015,04,11,12,42,9.00
2015,04,11,12,43,8.90
2015,04,11,12,44,8.80
2015,04,11,12,45,8.70
2015,04,11,12,46,8.70
2015,04,11,12,47,8.60
2015,04,11,12,48,8.60
2015,04,11,12,49,8.50
2015,04,11,12,50,8.50
2015,04,11,12,51,8.50
2015,04,11,12,52,8.50
2015,04,11,12,53,8.50
2015,04,11,12,54,8.50
2015,04,11,12,55,8.50
2015,04,11,12,56,8.60
2015,04,11,12,57,8.60
2015,04,11,12,58,8.70
2015,04,11,12,59,8.70
2015,04,11,13,00,8.70
2015,04,11,13,01,8.80
2015,04,11,13,02,8.70
2015,04,11,13,03,8.70
2015,04,11,13,04,8.70
2015,04,11,13,05,8.70
2015,04,11,13,06,8.70
2015,04,11,13,07,8.70
2015,04,11,13,08,8.80
2015,04,11,13,09,8.80
2015,04,11,13,10,9.00
2015,04,11,13,11,9.10
2015,04,11,13,12,9.20
2015,04,11,13,13,9.30
2015,04,11,13,14,9.30
2015,04,11,13,15,9.30
2015,04,11,13,16,9.50
2015,04,11,13,17,9.60
2015,04,11,13,18,9.70
2015,04,11,13,19,9.70
2015,04,11,13,20,9.70
2015,04,11,13,21,9.70
2015,04,11,13,22,9.80
2015,04,11,13,23,9.80
2015,04,11,13,24,9.80
2015,04,11,13,25,9.80
2015,04,11,13,26,9.90
2015,04,11,13,27,9.80
2015,04,11,13,28,9.80
2015,04,11,13,29,9.70
2015,04,11,13,30,9.70
2015,04,11,13,31,9.80
2015,04,11,13,32,9.80
2015,04,11,13,33,9.90
2015,04,11,13,34,10.00
2015,04,11,13,35,10.00
2015,04,11,13,36,10.00
2015,04,11,13,37,10.00
2015,04,11,13,38,9.90
2015,04,11,13,39,9.90
2015,04,11,13,40,9.90
2015,04,11,13,41,9.90
2015,04,11,13,42,9.80
2015,04,11,13,43,9.80
2015,04,11,13,44,9.80
2015,04,11,13,45,9.80
2015,04,11,13,46,9.80
2015,04,11,13,47,9.80
2015,04,11,13,48,9.80
2015,04,11,13,49,9.80
2015,04,11,13,50,9.80
2015,04,11,13,51,9.80
2015,04,11,13,52,9.80
2015,04,11,13,53,9.90
2015,04,11,13,54,9.90
2015,04,11,13,55,9.90
2015,04,11,13,56,10.00
2015,04,11,13,57,10.00
2015,04,11,13,58,10.10
2015,04,11,13,59,10.10
2015,04,11,14,00,10.20
2015,04,11,14,01,10.30
2015,04,11,14,02,10.30
2015,04,11,14,03,10.40
2015,04,11,14,04,10.40
2015,04,11,14,05,10.50
2015,04,11,14,06,10.60
2015,04,11,14,07,10.70
2015,04,11,14,08,10.80
2015,04,11,14,09,10.80
2015,04,11,14,10,10.80
2015,04,11,14,11,10.80
2015,04,11,14,12,10.70
2015,04,11,14,13,10.60
2015,04,11,14,14,10.50
2015,04,11,14,15,10.40
2015,04,11,14,16,10.20
2015,04,11,14,17,10.20
2015,04,11,14,18,10.10
2015,04,11,14,19,10.10
2015,04,11,14,20,10.00
2015,04,11,14,21,10.00
2015,04,11,14,22,9.90
2015,04,11,14,23,9.90
2015,04,11,14,24,9.90
2015,04,11,14,25,9.80
2015,04,11,14,26,9.80
2015,04,11,14,27,9.80
2015,04,11,14,28,9.70
2015,04,11,14,29,9.70
2015,04,11,14,30,9.70
2015,04,11,14,31,9.70
2015,04,11,14,32,9.70
2015,04,11,14,33,9.70
2015,04,11,14,34,9.70
2015,04,11,14,35,9.70
2015,04,11,14,36,9.70
2015,04,11,14,37,9.70
2015,04,11,14,38,9.70
2015,04,11,14,39,9.70
2015,04,11,14,40,9.70
2015,04,11,14,41,9.70
2015,04,11,14,42,9.70
2015,04,11,14,43,9.70
2015,04,11,14,44,9.70
2015,04,11,14,45,9.70
2015,04,11,14,46,9.70
2015,04,11,14,47,9.70
2015,04,11,14,48,9.70
2015,04,11,14,49,9.70
2015,04,11,14,50,9.70
2015,04,11,14,51,9.70
2015,04,11,14,52,9.70
2015,04,11,14,53,9.70
2015,04,11,14,54,9.70
2015,04,11,14,55,9.70
2015,04,11,14,56,9.70
2015,04,11,14,57,9.70
2015,04,11,14,58,9.70
2015,04,11,14,59,9.70
2015,04,11,15,00,9.70
2015,04,11,15,01,9.80
2015,04,11,15,02,9.80
2015,04,11,15,03,9.80
2015,04,11,15,04,9.80
2015,04,11,15,05,9.80
2015,04,11,15,06,9.80
2015,04,11,15,07,9.80
2015,04,11,15,08,9.70
2015,04,11,15,09,9.70
2015,04,11,15,10,9.70
2015,04,11,15,11,9.70
2015,04,11,15,12,9.70
2015,04,11,15,13,9.70
2015,04,11,15,14,9.70
2015,04,11,15,15,9.70
2015,04,11,15,16,9.70
2015,04,11,15,17,9.70
2015,04,11,15,18,9.70
2015,04,11,15,19,9.70
2015,04,11,15,20,9.60
2015,04,11,15,21,9.60
2015,04,11,15,22,9.60
2015,04,11,15,23,9.60
2015,04,11,15,24,9.60
2015,04,11,15,25,9.60
2015,04,11,15,26,9.60
2015,04,11,15,27,9.50
2015,04,11,15,28,9.50
2015,04,11,15,29,9.50
2015,04,11,15,30,9.50
2015,04,11,15,31,9.50
2015,04,11,15,32,9.60
2015,04,11,15,33,9.60
2015,04,11,15,34,9.60
2015,04,11,15,35,9.60
2015,04,11,15,36,9.60
2015,04,11,15,37,9.60
2015,04,11,15,38,9.60
2015,04,11,15,39,9.60
2015,04,11,15,40,9.60
2015,04,11,15,41,9.60
2015,04,11,15,42,9.50
2015,04,11,15,43,9.50
2015,04,11,15,44,9.50
2015,04,11,15,45,9.50
2015,04,11,15,46,9.50
2015,04,11,15,47,9.50
2015,04,11,15,48,9.50
2015,04,11,15,49,9.50
2015,04,11,15,50,9.50
2015,04,11,15,51,9.50
2015,04,11,15,52,9.50
2015,04,11,15,53,9.40
2015,04,11,15,54,9.40
2015,04,11,15,55,9.30
2015,04,11,15,56,9.20
2015,04,11,15,57,9.10
2015,04,11,15,58,9.10
2015,04,11,15,59,9.10
2015,04,11,16,00,9.10
2015,04,11,16,01,9.10
2015,04,11,16,02,9.00
2015,04,11,16,03,8.90
2015,04,11,16,04,9.00
2015,04,11,16,05,9.00
2015,04,11,16,06,9.10
2015,04,11,16,07,9.10
2015,04,11,16,08,9.10
2015,04,11,16,09,9.10
2015,04,11,16,10,9.10
2015,04,11,16,11,9.00
2015,04,11,16,12,8.90
2015,04,11,16,13,8.90
2015,04,11,16,14,8.80
2015,04,11,16,15,8.90
2015,04,11,16,16,8.90
2015,04,11,16,17,8.90
2015,04,11,16,18,8.90
2015,04,11,16,19,8.90
2015,04,11,16,20,8.90
2015,04,11,16,21,8.90
2015,04,11,16,22,9.00
2015,04,11,16,23,9.00
2015,04,11,16,24,9.00
2015,04,11,16,25,9.00
2015,04,11,16,26,8.90
2015,04,11,16,27,8.90
2015,04,11,16,28,8.90
2015,04,11,16,29,8.90
2015,04,11,16,30,9.00
2015,04,11,16,31,9.00
2015,04,11,16,32,9.10
2015,04,11,16,33,9.10
2015,04,11,16,34,9.10
2015,04,11,16,35,9.10
2015,04,11,16,36,9.20
2015,04,11,16,37,9.20
2015,04,11,16,38,9.20
2015,04,11,16,39,9.20
2015,04,11,16,40,9.20
2015,04,11,16,41,9.30
2015,04,11,16,42,9.30
2015,04,11,16,43,9.30
2015,04,11,16,44,9.30
2015,04,11,16,45,9.30
2015,04,11,16,46,9.30
2015,04,11,16,47,9.30
2015,04,11,16,48,9.30
2015,04,11,16,49,9.30
2015,04,11,16,50,9.30
2015,04,11,16,51,9.30
2015,04,11,16,52,9.30
2015,04,11,16,53,9.30
2015,04,11,16,54,9.30
2015,04,11,16,55,9.30
2015,04,11,16,56,9.30
2015,04,11,16,57,9.30
2015,04,11,16,58,9.30
2015,04,11,16,59,9.30
2015,04,11,17,00,9.30
2015,04,11,17,01,9.30
2015,04,11,17,02,9.30
2015,04,11,17,03,9.30
2015,04,11,17,04,9.30
2015,04,11,17,05,9.30
2015,04,11,17,06,9.20
2015,04,11,17,07,9.20
2015,04,11,17,08,9.20
2015,04,11,17,09,9.20
2015,04,11,17,10,9.20
2015,04,11,17,11,9.20
2015,04,11,17,12,9.20
2015,04,11,17,13,9.20
2015,04,11,17,14,9.20
2015,04,11,17,15,9.20
2015,04,11,17,16,9.20
2015,04,11,17,17,9.20
2015,04,11,17,18,9.20
2015,04,11,17,19,9.20
2015,04,11,17,20,9.20
2015,04,11,17,21,9.20
2015,04,11,17,22,9.20
2015,04,11,17,23,9.20
2015,04,11,17,24,9.30
2015,04,11,17,25,9.30
2015,04,11,17,26,9.30
2015,04,11,17,27,9.40
2015,04,11,17,28,9.50
2015,04,11,17,29,9.60
2015,04,11,17,30,9.60
2015,04,11,17,31,9.60
2015,04,11,17,32,9.60
2015,04,11,17,33,9.60
2015,04,11,17,34,9.60
2015,04,11,17,35,9.60
2015,04,11,17,36,9.50
2015,04,11,17,37,9.50
2015,04,11,17,38,9.50
2015,04,11,17,39,9.50
2015,04,11,17,40,9.50
2015,04,11,17,41,9.50
2015,04,11,17,42,9.50
2015,04,11,17,43,9.50
2015,04,11,17,44,9.50
2015,04,11,17,45,9.60
2015,04,11,17,46,9.70
2015,04,11,17,47,9.80
2015,04,11,17,48,9.90
2015,04,11,17,49,10.10
2015,04,11,17,50,10.20
2015,04,11,17,51,10.20
2015,04,11,17,52,10.30
2015,04,11,17,53,10.20
2015,04,11,17,54,10.10
2015,04,11,17,55,10.10
2015,04,11,17,56,10.00
2015,04,11,17,57,10.00
2015,04,11,17,58,9.90
2015,04,11,17,59,9.90
2015,04,11,18,00,9.80
2015,04,11,18,01,9.80
2015,04,11,18,02,9.80
2015,04,11,18,03,9.80
2015,04,11,18,04,9.80